TimeAKDT,TemperatureF,Dew PointF,Humidity,Sea Level PressureIn,VisibilityMPH,Wind Direction,Wind SpeedMPH,Gust SpeedMPH,PrecipitationIn,Events,Conditions,WindDirDegrees,DateUTC
12:30 AM,3.2,-2.2,78,29.99,2.5,Calm,Calm,-,0.00,Snow,Light Snow,0,2013-03-21 08:30:00
12:38 AM,3.2,-2.2,78,29.99,4.0,ESE,3.5,-,0.00,Snow,Light Snow,110,2013-03-21 08:38:00
12:56 AM,3.9,-0.9,80,30.04,6.0,Calm,Calm,-,0.00,,Haze,0,2013-03-21 08:56:00
1:56 AM,3.0,-2.0,80,30.05,9.0,ENE,4.6,-,0.00,,Overcast,70,2013-03-21 09:56:00
2:56 AM,1.9,-2.9,80,30.07,8.0,East,5.8,-,0.00,Snow,Light Snow,80,2013-03-21 10:56:00
3:30 AM,1.4,-4.0,78,30.03,6.0,East,4.6,-,0.00,Snow,Light Snow,90,2013-03-21 11:30:00
3:56 AM,-0.0,-4.0,83,30.08,10.0,ENE,5.8,-,0.00,,Overcast,70,2013-03-21 11:56:00
4:30 AM,1.4,-4.0,78,30.04,-9999.0,ENE,5.8,-,0.00,Snow,Light Snow,70,2013-03-21 12:30:00
4:52 AM,1.4,-2.2,85,30.04,2.5,ENE,8.1,-,0.00,Snow,Light Snow,70,2013-03-21 12:52:00
4:56 AM,1.9,-2.9,80,30.09,2.0,ENE,8.1,-,0.00,Snow,Light Snow,70,2013-03-21 12:56:00
5:05 AM,1.4,-2.2,85,30.04,1.8,East,6.9,-,0.00,Snow,Light Snow,80,2013-03-21 13:05:00
5:28 AM,3.2,-2.2,78,30.05,2.5,East,5.8,-,0.00,Snow,Light Snow,80,2013-03-21 13:28:00
5:36 AM,1.4,-2.2,85,30.05,-9999.0,ENE,5.8,-,0.00,Snow,Light Snow,60,2013-03-21 13:36:00
5:56 AM,3.0,-2.0,80,30.09,3.0,ENE,5.8,-,0.00,Snow,Light Snow,70,2013-03-21 13:56:00
6:22 AM,3.2,-0.4,85,30.06,3.0,East,5.8,-,N/A,Snow,Light Snow,80,2013-03-21 14:22:00
6:55 AM,1.4,-2.2,85,30.10,3.0,ENE,4.6,-,N/A,Snow,Light Snow,70,2013-03-21 14:55:00
7:23 AM,3.2,-0.4,85,30.07,1.0,ENE,4.6,-,N/A,Snow,Light Snow,70,2013-03-21 15:23:00
7:30 AM,3.2,-0.4,85,30.07,1.5,East,4.6,-,N/A,Snow,Light Snow,80,2013-03-21 15:30:00
7:55 AM,3.2,-0.4,85,30.12,1.5,ENE,5.8,-,N/A,Snow,Light Snow,70,2013-03-21 15:55:00
8:32 AM,3.2,-0.4,85,30.08,1.0,ENE,4.6,-,N/A,Snow,Light Snow,70,2013-03-21 16:32:00
8:55 AM,3.2,-0.4,85,30.13,0.8,ENE,4.6,-,N/A,Snow,Light Snow,70,2013-03-21 16:55:00
9:18 AM,3.2,-0.4,85,30.09,0.5,East,5.8,-,N/A,Fog-Snow,Light Snow,80,2013-03-21 17:18:00
9:26 AM,3.2,-0.4,85,30.09,1.5,East,5.8,-,N/A,Snow,Light Snow,80,2013-03-21 17:26:00
9:30 AM,3.2,-0.4,85,30.09,2.5,East,4.6,-,N/A,Snow,Light Snow,80,2013-03-21 17:30:00
9:39 AM,3.2,-2.2,78,30.09,3.0,ENE,4.6,-,N/A,Snow,Light Snow,70,2013-03-21 17:39:00
9:46 AM,3.2,-0.4,85,30.09,1.0,East,4.6,-,N/A,Snow,Light Snow,80,2013-03-21 17:46:00
9:55 AM,3.2,-0.4,85,30.14,1.0,East,4.6,-,N/A,Snow,Light Snow,90,2013-03-21 17:55:00
10:01 AM,3.2,-0.4,85,30.10,1.5,East,3.5,-,N/A,Snow,Light Snow,80,2013-03-21 18:01:00
10:30 AM,5.0,-0.4,78,30.10,2.0,ESE,3.5,-,N/A,Snow,Light Snow,110,2013-03-21 18:30:00
10:40 AM,6.8,-0.4,72,30.10,1.0,ESE,4.6,-,N/A,Snow,Light Snow,110,2013-03-21 18:40:00
10:55 AM,5.0,-0.4,78,30.14,2.5,East,5.8,-,N/A,Snow,Light Snow,100,2013-03-21 18:55:00
11:42 AM,6.8,1.4,79,30.10,2.0,SE,5.8,-,N/A,Snow,Light Snow,130,2013-03-21 19:42:00
11:48 AM,8.6,3.2,79,30.10,1.5,ESE,5.8,-,N/A,Snow,Light Snow,120,2013-03-21 19:48:00
11:55 AM,8.6,3.2,79,30.14,1.2,ESE,5.8,-,N/A,Snow,Light Snow,120,2013-03-21 19:55:00
12:22 PM,10.4,3.2,73,30.10,2.0,ESE,8.1,-,N/A,Snow,Light Snow,120,2013-03-21 20:22:00
12:45 PM,10.4,5.0,79,30.10,1.5,ESE,5.8,-,N/A,Snow,Light Snow,120,2013-03-21 20:45:00
12:55 PM,10.4,5.0,79,30.14,1.5,SE,5.8,-,N/A,Snow,Light Snow,130,2013-03-21 20:55:00
1:00 PM,10.4,5.0,79,30.10,2.0,SE,5.8,-,N/A,Snow,Light Snow,130,2013-03-21 21:00:00
1:31 PM,14.0,6.8,73,30.10,2.5,SE,4.6,-,N/A,Snow,Light Snow,130,2013-03-21 21:31:00
1:38 PM,14.0,6.8,73,30.10,5.0,Calm,Calm,-,N/A,Snow,Light Snow,0,2013-03-21 21:38:00
1:55 PM,14.0,6.8,73,30.14,7.0,SSE,3.5,-,N/A,,Mostly Cloudy,150,2013-03-21 21:55:00
2:55 PM,15.8,5.0,62,30.13,7.0,SSW,4.6,-,N/A,,Mostly Cloudy,200,2013-03-21 22:55:00
3:55 PM,19.4,3.2,49,30.12,10.0,Calm,Calm,-,N/A,,Mostly Cloudy,0,2013-03-21 23:55:00
4:55 PM,17.6,1.4,49,30.11,10.0,Calm,Calm,-,N/A,,Mostly Cloudy,0,2013-03-22 00:55:00
5:55 PM,15.8,1.4,53,30.10,10.0,Calm,Calm,-,N/A,,Mostly Cloudy,0,2013-03-22 01:55:00
6:55 PM,10.4,-0.4,62,30.10,10.0,Calm,Calm,-,N/A,,Mostly Cloudy,0,2013-03-22 02:55:00
7:55 PM,6.8,-2.2,67,30.09,10.0,Calm,Calm,-,N/A,,Mostly Cloudy,0,2013-03-22 03:55:00
8:55 PM,10.4,-2.2,57,30.08,10.0,East,3.5,-,N/A,,Mostly Cloudy,90,2013-03-22 04:55:00
9:55 PM,12.2,-2.2,53,30.06,7.0,East,5.8,-,N/A,,Mostly Cloudy,90,2013-03-22 05:55:00
10:56 PM,12.9,-0.9,54,30.05,10.0,ENE,6.9,-,N/A,,Overcast,60,2013-03-22 06:56:00
11:56 PM,12.0,-2.0,53,30.04,10.0,ENE,4.6,-,N/A,,Overcast,70,2013-03-22 07:56:00